Time,TemperatureF,DewpointF,PressureIn,WindDirection,WindDirectionDegrees,WindSpeedMPH,WindSpeedGustMPH,Humidity,HourlyPrecipIn,Conditions,Clouds,dailyrainin,SoftwareType,DateUTC
2013-10-27 00:04:00,45.8,36.6,29.88,WSW,242,0.0,0.0,70,0.00,,OVC080,0.00,VWS V14.00,2013-10-27 04:04:00,
2013-10-27 00:09:00,45.8,37.0,29.88,WSW,242,0.0,0.0,71,0.00,,OVC080,0.00,VWS V14.00,2013-10-27 04:09:00,
2013-10-27 00:14:00,45.6,37.1,29.89,WSW,242,0.0,0.0,72,0.00,,OVC080,0.00,VWS V14.00,2013-10-27 04:14:00,
2013-10-27 00:19:00,45.4,37.6,29.88,WSW,242,0.0,0.0,74,0.00,,OVC080,0.00,VWS V14.00,2013-10-27 04:19:00,
2013-10-27 00:24:00,45.0,37.6,29.88,WSW,242,0.0,0.0,75,0.00,,OVC080,0.00,VWS V14.00,2013-10-27 04:24:00,
2013-10-27 00:29:00,44.7,37.6,29.89,WSW,242,0.0,0.0,76,0.00,,OVC080,0.00,VWS V14.00,2013-10-27 04:29:00,
2013-10-27 00:34:00,44.3,37.9,29.89,WSW,239,0.0,0.0,78,0.00,,OVC080,0.00,VWS V14.00,2013-10-27 04:34:00,
2013-10-27 00:39:00,44.0,37.9,29.88,WSW,239,0.0,0.0,79,0.00,,OVC080,0.00,VWS V14.00,2013-10-27 04:39:00,
2013-10-27 00:44:00,43.7,38.0,29.89,WSW,239,0.0,0.0,80,0.00,,OVC080,0.00,VWS V14.00,2013-10-27 04:44:00,
2013-10-27 00:49:00,43.5,37.8,29.88,WSW,241,0.0,0.0,80,0.00,,OVC080,0.00,VWS V14.00,2013-10-27 04:49:00,
2013-10-27 00:54:00,43.5,37.8,29.88,WSW,241,0.0,0.0,80,0.00,,OVC080,0.00,VWS V14.00,2013-10-27 04:54:00,
2013-10-27 00:59:00,43.8,37.7,29.88,West,274,0.0,6.0,79,0.00,,OVC080,0.00,VWS V14.00,2013-10-27 04:59:00,
2013-10-27 01:04:00,44.3,37.2,29.88,WSW,252,0.0,18.0,76,0.00,,OVC085,0.00,VWS V14.00,2013-10-27 05:04:00,
2013-10-27 01:09:00,44.5,37.1,29.86,SSW,211,0.0,18.0,75,0.00,,OVC085,0.00,VWS V14.00,2013-10-27 05:09:00,
2013-10-27 01:14:00,44.5,37.1,29.86,South,175,0.0,18.0,75,0.00,,OVC085,0.00,VWS V14.00,2013-10-27 05:14:00,
2013-10-27 01:19:00,44.4,37.0,29.86,NW,307,0.0,18.0,75,0.00,,OVC085,0.00,VWS V14.00,2013-10-27 05:19:00,
2013-10-27 01:24:00,44.4,37.0,29.86,SW,236,0.0,18.0,75,0.00,,OVC085,0.00,VWS V14.00,2013-10-27 05:24:00,
2013-10-27 01:29:00,44.4,37.0,29.86,WSW,252,0.0,18.0,75,0.00,,OVC085,0.00,VWS V14.00,2013-10-27 05:29:00,
2013-10-27 01:34:00,44.3,36.9,29.86,South,191,0.0,0.0,75,0.00,,OVC085,0.00,VWS V14.00,2013-10-27 05:34:00,
2013-10-27 01:39:00,44.3,36.9,29.86,South,191,0.0,0.0,75,0.00,,OVC085,0.00,VWS V14.00,2013-10-27 05:39:00,
2013-10-27 01:44:00,44.1,36.7,29.86,South,191,0.0,0.0,75,0.00,,OVC085,0.00,VWS V14.00,2013-10-27 05:44:00,
2013-10-27 01:49:00,44.1,37.0,29.85,South,180,0.0,0.0,76,0.00,,OVC085,0.00,VWS V14.00,2013-10-27 05:49:00,
2013-10-27 01:54:00,44.1,36.7,29.86,WSW,238,0.0,0.0,75,0.00,,OVC085,0.00,VWS V14.00,2013-10-27 05:54:00,
2013-10-27 01:59:00,44.1,36.7,29.86,SW,220,0.0,0.0,75,0.00,,OVC085,0.00,VWS V14.00,2013-10-27 05:59:00,
2013-10-27 02:04:00,44.1,36.7,29.86,SW,220,0.0,0.0,75,0.00,,OVC085,0.00,VWS V14.00,2013-10-27 06:04:00,
2013-10-27 02:08:00,44.3,36.5,29.86,South,191,0.0,0.0,74,0.00,,OVC085,0.00,VWS V14.00,2013-10-27 06:08:00,
2013-10-27 02:09:00,44.1,36.7,29.85,SSW,203,0.0,0.0,75,0.00,,OVC085,0.00,VWS V14.00,2013-10-27 06:09:00,
2013-10-27 02:14:00,44.3,36.5,29.86,South,191,0.0,0.0,74,0.00,,OVC085,0.00,VWS V14.00,2013-10-27 06:14:00,
2013-10-27 02:19:00,44.3,36.5,29.86,South,191,0.0,0.0,74,0.00,,OVC085,0.00,VWS V14.00,2013-10-27 06:19:00,
2013-10-27 02:24:00,44.5,36.7,29.85,West,269,0.0,0.0,74,0.00,,OVC085,0.00,VWS V14.00,2013-10-27 06:24:00,
2013-10-27 02:29:00,44.5,36.7,29.85,West,269,0.0,0.0,74,0.00,,OVC085,0.00,VWS V14.00,2013-10-27 06:29:00,
2013-10-27 02:34:00,44.5,36.7,29.85,West,269,0.0,0.0,74,0.00,,OVC085,0.00,VWS V14.00,2013-10-27 06:34:00,
2013-10-27 02:35:00,44.5,37.1,29.86,West,269,0.0,0.0,75,0.00,,OVC085,0.00,VWS V14.00,2013-10-27 06:35:00,
2013-10-27 02:39:00,44.5,37.1,29.86,West,269,0.0,0.0,75,0.00,,OVC085,0.00,VWS V14.00,2013-10-27 06:39:00,
2013-10-27 02:44:00,44.5,37.1,29.86,West,269,0.0,0.0,75,0.00,,OVC085,0.00,VWS V14.00,2013-10-27 06:44:00,
2013-10-27 02:49:00,44.5,36.7,29.86,West,281,0.0,0.0,74,0.00,,OVC085,0.00,VWS V14.00,2013-10-27 06:49:00,
2013-10-27 02:54:00,43.7,37.3,29.86,NW,310,0.0,4.0,78,0.00,,OVC085,0.00,VWS V14.00,2013-10-27 06:54:00,
2013-10-27 02:59:00,43.3,37.2,29.85,WNW,302,0.0,4.0,79,0.00,,OVC085,0.00,VWS V14.00,2013-10-27 06:59:00,
2013-10-27 03:04:00,43.0,37.3,29.85,WNW,300,0.0,0.0,80,0.00,,-RA,0.00,VWS V14.00,2013-10-27 07:04:00,
2013-10-27 03:09:00,42.7,37.3,29.85,WNW,300,0.0,0.0,81,0.00,,-RA,0.00,VWS V14.00,2013-10-27 07:09:00,
2013-10-27 03:14:00,42.5,37.7,29.85,WNW,301,0.0,0.0,83,0.00,,-RA,0.00,VWS V14.00,2013-10-27 07:14:00,
2013-10-27 03:19:00,42.4,37.6,29.84,WNW,301,0.0,0.0,83,0.00,,-RA,0.00,VWS V14.00,2013-10-27 07:19:00,
2013-10-27 03:24:00,42.2,37.7,29.84,NW,304,0.0,0.0,84,0.00,,-RA,0.00,VWS V14.00,2013-10-27 07:24:00,
2013-10-27 03:29:00,42.1,37.6,29.84,NW,304,0.0,0.0,84,0.00,,-RA,0.00,VWS V14.00,2013-10-27 07:29:00,
2013-10-27 03:34:00,42.1,37.6,29.83,NW,304,0.0,0.0,84,0.00,,-RA,0.00,VWS V14.00,2013-10-27 07:34:00,
2013-10-27 03:39:00,42.0,37.5,29.82,NW,304,0.0,0.0,84,0.00,,-RA,0.00,VWS V14.00,2013-10-27 07:39:00,
2013-10-27 03:44:00,42.0,37.8,29.82,NW,304,0.0,0.0,85,0.00,,-RA,0.00,VWS V14.00,2013-10-27 07:44:00,
2013-10-27 03:49:00,41.8,37.6,29.82,NW,304,0.0,0.0,85,0.00,,-RA,0.00,VWS V14.00,2013-10-27 07:49:00,
2013-10-27 03:54:00,42.0,37.8,29.82,NW,304,0.0,0.0,85,0.00,,-RA,0.00,VWS V14.00,2013-10-27 07:54:00,
2013-10-27 03:59:00,42.0,37.8,29.82,NW,304,0.0,0.0,85,0.00,,-RA,0.00,VWS V14.00,2013-10-27 07:59:00,
2013-10-27 04:04:00,42.0,37.8,29.82,NW,304,0.0,0.0,85,0.00,,OVC085,0.00,VWS V14.00,2013-10-27 08:04:00,
2013-10-27 04:09:00,41.9,37.7,29.81,NW,304,0.0,0.0,85,0.00,,OVC085,0.00,VWS V14.00,2013-10-27 08:09:00,
2013-10-27 04:14:00,42.1,37.6,29.81,NW,304,0.0,0.0,84,0.00,,OVC085,0.00,VWS V14.00,2013-10-27 08:14:00,
2013-10-27 04:19:00,42.4,37.9,29.81,WSW,243,0.0,5.0,84,0.00,,OVC085,0.00,VWS V14.00,2013-10-27 08:19:00,
2013-10-27 04:24:00,42.5,37.4,29.81,NW,313,0.0,5.0,82,0.00,,OVC085,0.00,VWS V14.00,2013-10-27 08:24:00,
2013-10-27 04:29:00,42.7,37.6,29.81,WNW,290,0.0,5.0,82,0.00,,OVC085,0.00,VWS V14.00,2013-10-27 08:29:00,
2013-10-27 04:34:00,42.7,37.6,29.81,West,276,0.0,0.0,82,0.00,,OVC085,0.00,VWS V14.00,2013-10-27 08:34:00,
2013-10-27 04:39:00,42.8,37.7,29.81,West,274,0.0,0.0,82,0.00,,OVC085,0.00,VWS V14.00,2013-10-27 08:39:00,
2013-10-27 04:44:00,42.8,37.7,29.81,West,274,0.0,0.0,82,0.00,,OVC085,0.00,VWS V14.00,2013-10-27 08:44:00,
2013-10-27 04:49:00,42.7,37.6,29.81,WSW,237,0.0,0.0,82,0.00,,OVC085,0.00,VWS V14.00,2013-10-27 08:49:00,
2013-10-27 04:54:00,42.5,38.0,29.81,SW,234,0.0,0.0,84,0.00,,OVC085,0.00,VWS V14.00,2013-10-27 08:54:00,
2013-10-27 04:59:00,42.4,37.9,29.82,SW,235,0.0,0.0,84,0.01,,OVC085,0.01,VWS V14.00,2013-10-27 08:59:00,
2013-10-27 05:04:00,42.2,37.7,29.82,SSW,192,0.0,0.0,84,0.01,,-RA,0.01,VWS V14.00,2013-10-27 09:04:00,
2013-10-27 05:09:00,42.4,37.9,29.82,SW,216,0.0,0.0,84,0.01,,-RA,0.01,VWS V14.00,2013-10-27 09:09:00,
2013-10-27 05:14:00,42.4,37.9,29.82,SW,216,0.0,0.0,84,0.01,,-RA,0.01,VWS V14.00,2013-10-27 09:14:00,
2013-10-27 05:19:00,42.4,37.9,29.82,SW,220,0.0,0.0,84,0.01,,-RA,0.01,VWS V14.00,2013-10-27 09:19:00,
2013-10-27 05:24:00,42.4,37.6,29.82,SW,219,0.0,0.0,83,0.01,,-RA,0.01,VWS V14.00,2013-10-27 09:24:00,
2013-10-27 05:29:00,42.4,37.9,29.82,SW,218,0.0,0.0,84,0.01,,-RA,0.01,VWS V14.00,2013-10-27 09:29:00,
2013-10-27 05:34:00,42.4,37.9,29.82,SW,218,0.0,0.0,84,0.01,,-RA,0.01,VWS V14.00,2013-10-27 09:34:00,
2013-10-27 05:39:00,42.4,37.6,29.82,SW,218,0.0,0.0,83,0.01,,-RA,0.01,VWS V14.00,2013-10-27 09:39:00,
2013-10-27 05:44:00,42.4,37.6,29.82,SW,218,0.0,0.0,83,0.00,,-RA,0.01,VWS V14.00,2013-10-27 09:44:00,
2013-10-27 05:49:00,42.5,37.7,29.83,SW,218,0.0,0.0,83,0.00,,-RA,0.01,VWS V14.00,2013-10-27 09:49:00,
2013-10-27 05:54:00,42.5,37.4,29.82,SW,218,0.0,0.0,82,0.00,,-RA,0.01,VWS V14.00,2013-10-27 09:54:00,
2013-10-27 05:59:00,42.4,37.6,29.83,SW,218,0.0,0.0,83,0.00,,-RA,0.01,VWS V14.00,2013-10-27 09:59:00,
2013-10-27 06:04:00,42.4,37.9,29.83,SW,218,0.0,0.0,84,0.00,,-RA,0.01,VWS V14.00,2013-10-27 10:04:00,
2013-10-27 06:09:00,42.3,37.8,29.82,SW,218,0.0,0.0,84,0.00,,-RA,0.01,VWS V14.00,2013-10-27 10:09:00,
2013-10-27 06:14:00,42.2,37.4,29.83,SW,218,0.0,0.0,83,0.00,,-RA,0.01,VWS V14.00,2013-10-27 10:14:00,
2013-10-27 06:19:00,42.2,37.7,29.83,SW,218,0.0,0.0,84,0.00,,-RA,0.01,VWS V14.00,2013-10-27 10:19:00,
2013-10-27 06:24:00,42.1,37.6,29.83,SW,218,0.0,0.0,84,0.00,,-RA,0.01,VWS V14.00,2013-10-27 10:24:00,
2013-10-27 06:29:00,42.1,37.6,29.83,SW,218,0.0,0.0,84,0.00,,-RA,0.01,VWS V14.00,2013-10-27 10:29:00,
2013-10-27 06:34:00,41.9,37.4,29.84,SW,218,0.0,0.0,84,0.00,,-RA,0.01,VWS V14.00,2013-10-27 10:34:00,
2013-10-27 06:39:00,42.0,37.5,29.84,SW,218,0.0,0.0,84,0.00,,-RA,0.01,VWS V14.00,2013-10-27 10:39:00,
2013-10-27 06:44:00,42.0,37.8,29.84,SW,219,0.0,0.0,85,0.00,,-RA,0.01,VWS V14.00,2013-10-27 10:44:00,
2013-10-27 06:49:00,42.0,37.5,29.84,SW,219,0.0,0.0,84,0.00,,-RA,0.01,VWS V14.00,2013-10-27 10:49:00,
2013-10-27 06:54:00,42.0,37.8,29.83,SW,220,0.0,0.0,85,0.00,,-RA,0.01,VWS V14.00,2013-10-27 10:54:00,
2013-10-27 06:59:00,42.0,37.5,29.83,SW,220,0.0,0.0,84,0.00,,-RA,0.01,VWS V14.00,2013-10-27 10:59:00,
2013-10-27 07:04:00,42.1,37.6,29.83,SW,220,0.0,0.0,84,0.00,,OVC060,0.01,VWS V14.00,2013-10-27 11:04:00,
2013-10-27 07:09:00,42.0,37.5,29.83,SW,220,0.0,0.0,84,0.00,,OVC060,0.01,VWS V14.00,2013-10-27 11:09:00,
2013-10-27 07:14:00,41.8,37.3,29.84,SW,220,0.0,0.0,84,0.00,,OVC060,0.01,VWS V14.00,2013-10-27 11:14:00,
2013-10-27 07:19:00,41.5,37.3,29.85,SW,220,0.0,0.0,85,0.00,,OVC060,0.01,VWS V14.00,2013-10-27 11:19:00,
2013-10-27 07:24:00,41.3,37.1,29.85,SW,220,0.0,0.0,85,0.00,,OVC060,0.01,VWS V14.00,2013-10-27 11:24:00,
2013-10-27 07:29:00,41.1,36.9,29.85,SW,220,0.0,0.0,85,0.00,,OVC060,0.01,VWS V14.00,2013-10-27 11:29:00,
2013-10-27 07:34:00,40.8,36.9,29.85,SW,220,0.0,0.0,86,0.00,,OVC060,0.01,VWS V14.00,2013-10-27 11:34:00,
2013-10-27 07:39:00,40.7,37.1,29.85,SW,220,0.0,0.0,87,0.00,,OVC060,0.01,VWS V14.00,2013-10-27 11:39:00,
2013-10-27 07:44:00,40.5,36.9,29.85,SW,220,0.0,0.0,87,0.00,,OVC060,0.01,VWS V14.00,2013-10-27 11:44:00,
2013-10-27 07:49:00,40.5,36.9,29.86,SW,220,0.0,0.0,87,0.00,,OVC060,0.01,VWS V14.00,2013-10-27 11:49:00,
2013-10-27 07:54:00,40.4,36.8,29.86,SW,226,0.0,0.0,87,0.00,,OVC060,0.01,VWS V14.00,2013-10-27 11:54:00,
2013-10-27 07:59:00,40.4,36.8,29.86,SW,218,0.0,0.0,87,0.00,,OVC060,0.01,VWS V14.00,2013-10-27 11:59:00,
2013-10-27 08:04:00,40.5,36.9,29.86,SW,217,0.0,0.0,87,0.00,,CLR,0.01,VWS V14.00,2013-10-27 12:04:00,
2013-10-27 08:09:00,40.7,37.1,29.86,SW,217,0.0,0.0,87,0.00,,CLR,0.01,VWS V14.00,2013-10-27 12:09:00,
2013-10-27 08:14:00,40.8,37.2,29.86,SW,217,0.0,0.0,87,0.00,,CLR,0.01,VWS V14.00,2013-10-27 12:14:00,
2013-10-27 08:19:00,41.0,37.4,29.87,SW,214,0.0,0.0,87,0.00,,CLR,0.01,VWS V14.00,2013-10-27 12:19:00,
2013-10-27 08:24:00,41.1,37.2,29.86,SW,217,0.0,0.0,86,0.00,,CLR,0.01,VWS V14.00,2013-10-27 12:24:00,
2013-10-27 08:29:00,41.4,37.2,29.87,SW,217,0.0,0.0,85,0.00,,CLR,0.01,VWS V14.00,2013-10-27 12:29:00,
2013-10-27 08:31:00,41.4,37.2,29.87,SW,217,0.0,0.0,85,0.00,,CLR,0.01,VWS V14.00,2013-10-27 12:31:00,
2013-10-27 08:36:00,41.6,37.4,29.87,SW,217,0.0,0.0,85,0.00,,CLR,0.01,VWS V14.00,2013-10-27 12:36:00,
2013-10-27 08:41:00,41.8,37.6,29.88,SW,217,0.0,0.0,85,0.00,,CLR,0.01,VWS V14.00,2013-10-27 12:41:00,
2013-10-27 08:46:00,42.1,37.6,29.88,SW,217,0.0,0.0,84,0.00,,CLR,0.01,VWS V14.00,2013-10-27 12:46:00,
2013-10-27 08:51:00,42.5,38.0,29.88,SW,217,0.0,0.0,84,0.00,,CLR,0.01,VWS V14.00,2013-10-27 12:51:00,
2013-10-27 08:56:00,42.8,38.0,29.88,SW,216,0.0,0.0,83,0.00,,CLR,0.01,VWS V14.00,2013-10-27 12:56:00,
2013-10-27 09:01:00,43.3,38.5,29.87,SW,216,0.0,0.0,83,0.00,,FEW060,0.01,VWS V14.00,2013-10-27 13:01:00,
2013-10-27 09:06:00,43.4,38.3,29.88,SW,216,0.0,0.0,82,0.00,,FEW060,0.01,VWS V14.00,2013-10-27 13:06:00,
2013-10-27 09:11:00,43.5,38.1,29.89,SW,216,0.0,0.0,81,0.00,,FEW060,0.01,VWS V14.00,2013-10-27 13:11:00,
2013-10-27 09:16:00,43.8,38.0,29.88,SW,217,0.0,0.0,80,0.00,,FEW060,0.01,VWS V14.00,2013-10-27 13:16:00,
2013-10-27 09:21:00,44.1,38.3,29.88,SW,217,0.0,0.0,80,0.00,,FEW060,0.01,VWS V14.00,2013-10-27 13:21:00,
2013-10-27 09:26:00,44.4,38.0,29.87,SW,214,0.0,0.0,78,0.00,,FEW060,0.01,VWS V14.00,2013-10-27 13:26:00,
2013-10-27 09:31:00,44.7,38.6,29.87,NNW,336,0.0,0.0,79,0.00,,FEW060,0.01,VWS V14.00,2013-10-27 13:31:00,
2013-10-27 09:36:00,45.2,38.1,29.88,NW,315,0.0,0.0,76,0.00,,FEW060,0.01,VWS V14.00,2013-10-27 13:36:00,
2013-10-27 09:41:00,45.5,38.4,29.88,NW,311,0.0,0.0,76,0.00,,FEW060,0.01,VWS V14.00,2013-10-27 13:41:00,
2013-10-27 09:46:00,45.9,38.1,29.88,NW,326,0.0,6.0,74,0.00,,FEW060,0.01,VWS V14.00,2013-10-27 13:46:00,
2013-10-27 09:51:00,46.2,38.4,29.89,South,176,0.0,6.0,74,0.00,,FEW060,0.01,VWS V14.00,2013-10-27 13:51:00,
2013-10-27 09:56:00,46.5,38.3,29.87,North,353,0.0,6.0,73,0.00,,FEW060,0.01,VWS V14.00,2013-10-27 13:56:00,
2013-10-27 10:01:00,46.6,38.1,29.88,NNW,335,0.0,5.0,72,0.00,,SCT060,0.01,VWS V14.00,2013-10-27 14:01:00,
2013-10-27 10:06:00,46.9,38.4,29.87,West,278,0.0,5.0,72,0.00,,SCT060,0.01,VWS V14.00,2013-10-27 14:06:00,
2013-10-27 10:11:00,47.3,38.7,29.87,NNW,327,0.0,8.0,72,0.00,,SCT060,0.01,VWS V14.00,2013-10-27 14:11:00,
2013-10-27 10:16:00,47.9,39.0,29.87,NNW,341,3.0,8.0,71,0.00,,SCT060,0.01,VWS V14.00,2013-10-27 14:16:00,
2013-10-27 10:21:00,48.5,39.5,29.88,North,351,4.0,8.0,71,0.00,,SCT060,0.01,VWS V14.00,2013-10-27 14:21:00,
2013-10-27 10:26:00,48.6,38.5,29.87,NNW,344,0.0,15.0,68,0.00,,SCT060,0.01,VWS V14.00,2013-10-27 14:26:00,
2013-10-27 10:31:00,48.4,38.3,29.87,North,352,0.0,9.0,68,0.00,,SCT060,0.01,VWS V14.00,2013-10-27 14:31:00,
2013-10-27 10:36:00,48.3,38.2,29.87,WSW,248,0.0,9.0,68,0.00,,SCT060,0.01,VWS V14.00,2013-10-27 14:36:00,
2013-10-27 10:41:00,47.9,37.1,29.89,NNW,327,0.0,15.0,66,0.00,,SCT060,0.01,VWS V14.00,2013-10-27 14:41:00,
2013-10-27 10:46:00,47.6,37.2,29.88,NNW,343,1.0,15.0,67,0.00,,SCT060,0.01,VWS V14.00,2013-10-27 14:46:00,
2013-10-27 10:51:00,47.8,37.0,29.88,West,277,0.0,15.0,66,0.00,,SCT060,0.01,VWS V14.00,2013-10-27 14:51:00,
2013-10-27 10:56:00,48.2,37.0,29.89,NW,326,0.0,15.0,65,0.00,,SCT060,0.01,VWS V14.00,2013-10-27 14:56:00,
2013-10-27 11:01:00,48.7,37.1,29.89,West,278,7.0,7.0,64,0.00,,SCT041,0.01,VWS V14.00,2013-10-27 15:01:00,
2013-10-27 11:06:00,49.0,37.0,29.88,NNW,334,0.0,10.0,63,0.00,,SCT041,0.01,VWS V14.00,2013-10-27 15:06:00,
2013-10-27 11:11:00,49.6,37.1,29.89,NW,312,5.0,11.0,62,0.00,,SCT041,0.01,VWS V14.00,2013-10-27 15:11:00,
2013-10-27 11:16:00,49.7,37.2,29.89,WNW,300,0.0,13.0,62,0.00,,SCT041,0.01,VWS V14.00,2013-10-27 15:16:00,
2013-10-27 11:21:00,50.0,36.7,29.88,NW,307,0.0,19.0,60,0.00,,SCT041,0.01,VWS V14.00,2013-10-27 15:21:00,
2013-10-27 11:26:00,50.4,37.5,29.88,West,262,0.0,19.0,61,0.00,,SCT041,0.01,VWS V14.00,2013-10-27 15:26:00,
2013-10-27 11:31:00,50.9,37.5,29.88,West,263,0.0,3.0,60,0.00,,SCT041,0.01,VWS V14.00,2013-10-27 15:31:00,
2013-10-27 11:36:00,51.0,36.8,29.88,NNW,341,0.0,16.0,58,0.00,,SCT041,0.01,VWS V14.00,2013-10-27 15:36:00,
2013-10-27 11:41:00,51.3,37.9,29.88,SW,229,0.0,16.0,60,0.00,,SCT041,0.01,VWS V14.00,2013-10-27 15:41:00,
2013-10-27 11:46:00,52.1,38.2,29.88,NNW,339,0.0,16.0,59,0.00,,SCT041,0.01,VWS V14.00,2013-10-27 15:46:00,
2013-10-27 11:51:00,52.3,37.5,29.89,North,356,1.0,16.0,57,0.00,,SCT041,0.01,VWS V14.00,2013-10-27 15:51:00,
2013-10-27 11:56:00,52.5,37.7,29.88,North,357,4.0,16.0,57,0.00,,SCT041,0.01,VWS V14.00,2013-10-27 15:56:00,
2013-10-27 12:01:00,52.8,38.0,29.88,NNW,336,0.0,0.0,57,0.00,,OVC047,0.01,VWS V14.00,2013-10-27 16:01:00,
2013-10-27 12:06:00,52.5,37.3,29.88,NNW,333,7.0,7.0,56,0.00,,OVC047,0.01,VWS V14.00,2013-10-27 16:06:00,
2013-10-27 12:11:00,52.5,37.7,29.88,WNW,297,0.0,7.0,57,0.00,,OVC047,0.01,VWS V14.00,2013-10-27 16:11:00,
2013-10-27 12:16:00,52.9,37.7,29.88,SW,223,0.0,14.0,56,0.00,,OVC047,0.01,VWS V14.00,2013-10-27 16:16:00,
2013-10-27 12:21:00,53.2,37.9,29.88,North,354,5.0,14.0,56,0.00,,OVC047,0.01,VWS V14.00,2013-10-27 16:21:00,
2013-10-27 12:26:00,53.2,37.9,29.89,West,270,0.0,14.0,56,0.00,,OVC047,0.01,VWS V14.00,2013-10-27 16:26:00,
2013-10-27 12:31:00,52.6,36.5,29.88,WNW,283,0.0,7.0,54,0.00,,OVC047,0.01,VWS V14.00,2013-10-27 16:31:00,
2013-10-27 12:36:00,51.8,37.1,29.88,NW,325,0.0,8.0,57,0.00,,OVC047,0.01,VWS V14.00,2013-10-27 16:36:00,
2013-10-27 12:41:00,51.6,36.9,29.88,West,267,0.0,8.0,57,0.00,,OVC047,0.01,VWS V14.00,2013-10-27 16:41:00,
2013-10-27 12:46:00,51.2,36.5,29.87,North,3,0.0,10.0,57,0.00,,OVC047,0.01,VWS V14.00,2013-10-27 16:46:00,
2013-10-27 12:51:00,51.3,36.6,29.88,WNW,295,1.0,14.0,57,0.00,,OVC047,0.01,VWS V14.00,2013-10-27 16:51:00,
2013-10-27 12:56:00,51.3,36.6,29.87,NNW,339,3.0,14.0,57,0.00,,OVC047,0.01,VWS V14.00,2013-10-27 16:56:00,
2013-10-27 13:01:00,50.7,36.5,29.87,NNW,345,4.0,5.0,58,0.00,,OVC050,0.01,VWS V14.00,2013-10-27 17:01:00,
2013-10-27 13:06:00,50.4,36.2,29.88,NW,314,0.0,12.0,58,0.00,,OVC050,0.01,VWS V14.00,2013-10-27 17:06:00,
2013-10-27 13:11:00,50.4,35.8,29.87,NNW,330,5.0,12.0,57,0.00,,OVC050,0.01,VWS V14.00,2013-10-27 17:11:00,
2013-10-27 13:16:00,51.2,36.5,29.87,WSW,257,4.0,13.0,57,0.00,,OVC050,0.01,VWS V14.00,2013-10-27 17:16:00,
2013-10-27 13:21:00,51.9,36.7,29.87,WSW,241,0.0,13.0,56,0.00,,OVC050,0.01,VWS V14.00,2013-10-27 17:21:00,
2013-10-27 13:26:00,52.5,36.8,29.87,WSW,258,0.0,13.0,55,0.00,,OVC050,0.01,VWS V14.00,2013-10-27 17:26:00,
2013-10-27 13:31:00,52.6,36.5,29.87,NW,307,1.0,7.0,54,0.00,,OVC050,0.01,VWS V14.00,2013-10-27 17:31:00,
2013-10-27 13:36:00,51.3,35.2,29.88,WNW,294,0.0,21.0,54,0.00,,OVC050,0.01,VWS V14.00,2013-10-27 17:36:00,
2013-10-27 13:41:00,51.0,35.4,29.88,NNW,342,0.0,21.0,55,0.00,,OVC050,0.01,VWS V14.00,2013-10-27 17:41:00,
2013-10-27 13:46:00,50.9,35.8,29.88,WSW,253,0.0,21.0,56,0.00,,OVC050,0.01,VWS V14.00,2013-10-27 17:46:00,
2013-10-27 13:51:00,51.3,36.2,29.88,West,271,0.0,21.0,56,0.00,,OVC050,0.01,VWS V14.00,2013-10-27 17:51:00,
2013-10-27 13:56:00,51.9,35.8,29.87,NNW,339,0.0,21.0,54,0.00,,OVC050,0.01,VWS V14.00,2013-10-27 17:56:00,
2013-10-27 14:01:00,51.8,36.2,29.87,WSW,249,0.0,0.0,55,0.00,,BKN050,0.01,VWS V14.00,2013-10-27 18:01:00,
2013-10-27 14:06:00,52.1,36.4,29.88,North,351,0.0,8.0,55,0.00,,BKN050,0.01,VWS V14.00,2013-10-27 18:06:00,
2013-10-27 14:11:00,52.2,36.1,29.87,WNW,282,0.0,8.0,54,0.00,,BKN050,0.01,VWS V14.00,2013-10-27 18:11:00,
2013-10-27 14:16:00,51.8,35.7,29.87,NW,326,0.0,8.0,54,0.00,,BKN050,0.01,VWS V14.00,2013-10-27 18:16:00,
2013-10-27 14:21:00,51.3,35.2,29.87,NW,307,7.0,11.0,54,0.00,,BKN050,0.01,VWS V14.00,2013-10-27 18:21:00,
2013-10-27 14:27:00,51.2,36.1,29.87,NW,322,0.0,11.0,56,0.00,,BKN050,0.01,VWS V14.00,2013-10-27 18:27:00,
2013-10-27 14:32:00,51.2,35.6,29.87,NW,322,0.0,7.0,55,0.00,,BKN050,0.01,VWS V14.00,2013-10-27 18:32:00,
2013-10-27 14:37:00,50.9,35.3,29.87,North,352,0.0,10.0,55,0.00,,BKN050,0.01,VWS V14.00,2013-10-27 18:37:00,
2013-10-27 14:42:00,50.3,35.2,29.87,NW,315,6.0,17.0,56,0.00,,BKN050,0.01,VWS V14.00,2013-10-27 18:42:00,
2013-10-27 14:47:00,50.0,34.5,29.87,SW,233,0.0,17.0,55,0.00,,BKN050,0.01,VWS V14.00,2013-10-27 18:47:00,
2013-10-27 14:52:00,49.8,34.3,29.88,NNW,332,0.0,17.0,55,0.00,,BKN050,0.01,VWS V14.00,2013-10-27 18:52:00,
2013-10-27 14:57:00,49.9,34.8,29.88,North,350,0.0,17.0,56,0.00,,BKN050,0.01,VWS V14.00,2013-10-27 18:57:00,
2013-10-27 15:02:00,50.3,34.8,29.89,NW,311,0.0,2.0,55,0.00,,BKN060,0.01,VWS V14.00,2013-10-27 19:02:00,
2013-10-27 15:07:00,50.6,34.6,29.89,WNW,297,0.0,11.0,54,0.00,,BKN060,0.01,VWS V14.00,2013-10-27 19:07:00,
2013-10-27 15:12:00,50.7,34.7,29.88,SW,231,0.0,11.0,54,0.00,,BKN060,0.01,VWS V14.00,2013-10-27 19:12:00,
2013-10-27 15:16:00,50.7,34.7,29.90,WNW,300,2.0,11.0,54,0.00,,BKN060,0.01,VWS V14.00,2013-10-27 19:16:00,
2013-10-27 15:22:00,50.7,34.7,29.89,WNW,299,0.0,11.0,54,0.00,,BKN060,0.01,VWS V14.00,2013-10-27 19:22:00,
2013-10-27 15:26:00,50.6,34.6,29.88,WSW,245,0.0,11.0,54,0.00,,BKN060,0.01,VWS V14.00,2013-10-27 19:26:00,
2013-10-27 15:31:00,50.4,34.4,29.88,WNW,291,2.0,4.0,54,0.00,,BKN060,0.01,VWS V14.00,2013-10-27 19:31:00,
2013-10-27 15:36:00,50.4,33.9,29.89,SSE,153,4.0,12.0,53,0.00,,BKN060,0.01,VWS V14.00,2013-10-27 19:36:00,
2013-10-27 15:41:00,50.6,33.6,29.89,West,271,2.0,12.0,52,0.00,,BKN060,0.01,VWS V14.00,2013-10-27 19:41:00,
2013-10-27 15:46:00,50.7,34.2,29.90,South,184,0.0,12.0,53,0.00,,BKN060,0.01,VWS V14.00,2013-10-27 19:46:00,
2013-10-27 15:51:00,51.0,34.0,29.89,NNW,341,0.0,12.0,52,0.00,,BKN060,0.01,VWS V14.00,2013-10-27 19:51:00,
2013-10-27 15:56:00,51.0,34.0,29.89,SW,219,0.0,12.0,52,0.00,,BKN060,0.01,VWS V14.00,2013-10-27 19:56:00,
2013-10-27 16:01:00,50.6,34.1,29.89,NW,316,0.0,4.0,53,0.00,,BKN250,0.01,VWS V14.00,2013-10-27 20:01:00,
2013-10-27 16:06:00,50.1,33.2,29.89,NW,315,0.0,11.0,52,0.00,,BKN250,0.01,VWS V14.00,2013-10-27 20:06:00,
2013-10-27 16:11:00,50.1,34.1,29.90,NNW,338,0.0,11.0,54,0.00,,BKN250,0.01,VWS V14.00,2013-10-27 20:11:00,
2013-10-27 16:16:00,50.4,34.4,29.89,WNW,302,0.0,11.0,54,0.00,,BKN250,0.01,VWS V14.00,2013-10-27 20:16:00,
2013-10-27 16:21:00,50.6,34.1,29.89,WNW,296,3.0,11.0,53,0.00,,BKN250,0.01,VWS V14.00,2013-10-27 20:21:00,
2013-10-27 16:26:00,50.6,33.6,29.90,West,264,0.0,11.0,52,0.00,,BKN250,0.01,VWS V14.00,2013-10-27 20:26:00,
2013-10-27 16:32:00,50.6,33.6,29.89,West,264,0.0,0.0,52,0.00,,BKN250,0.01,VWS V14.00,2013-10-27 20:32:00,
2013-10-27 16:37:00,50.6,33.2,29.90,WSW,253,2.0,9.0,51,0.00,,BKN250,0.01,VWS V14.00,2013-10-27 20:37:00,
2013-10-27 16:42:00,50.4,33.0,29.90,WSW,241,0.0,9.0,51,0.00,,BKN250,0.01,VWS V14.00,2013-10-27 20:42:00,
2013-10-27 16:47:00,50.3,32.4,29.90,NNW,334,0.0,9.0,50,0.00,,BKN250,0.01,VWS V14.00,2013-10-27 20:47:00,
2013-10-27 16:52:00,50.1,32.7,29.90,SW,222,0.0,9.0,51,0.00,,BKN250,0.01,VWS V14.00,2013-10-27 20:52:00,
2013-10-27 16:57:00,49.9,32.5,29.90,West,275,0.0,9.0,51,0.00,,BKN250,0.01,VWS V14.00,2013-10-27 20:57:00,
2013-10-27 17:02:00,49.6,31.7,29.91,NW,315,0.0,6.0,50,0.00,,BKN250,0.01,VWS V14.00,2013-10-27 21:02:00,
2013-10-27 17:07:00,49.4,31.6,29.92,NNW,347,0.0,12.0,50,0.00,,BKN250,0.01,VWS V14.00,2013-10-27 21:07:00,
2013-10-27 17:12:00,49.1,31.3,29.92,WNW,303,0.0,12.0,50,0.00,,BKN250,0.01,VWS V14.00,2013-10-27 21:12:00,
2013-10-27 17:17:00,49.0,31.7,29.92,NNW,327,3.0,13.0,51,0.00,,BKN250,0.01,VWS V14.00,2013-10-27 21:17:00,
2013-10-27 17:22:00,48.7,32.3,29.93,NNW,343,0.0,13.0,53,0.00,,BKN250,0.01,VWS V14.00,2013-10-27 21:22:00,
2013-10-27 17:26:00,48.4,32.1,29.93,WNW,297,0.0,13.0,53,0.00,,BKN250,0.01,VWS V14.00,2013-10-27 21:26:00,
2013-10-27 17:31:00,48.1,32.3,29.93,NNW,327,0.0,1.0,54,0.00,,BKN250,0.01,VWS V14.00,2013-10-27 21:31:00,
2013-10-27 17:36:00,47.8,32.0,29.93,WSW,251,0.0,3.0,54,0.00,,BKN250,0.01,VWS V14.00,2013-10-27 21:36:00,
2013-10-27 17:42:00,47.6,32.2,29.94,NNW,336,0.0,3.0,55,0.00,,BKN250,0.01,VWS V14.00,2013-10-27 21:42:00,
2013-10-27 17:47:00,47.5,32.2,29.95,NW,305,3.0,6.0,55,0.00,,BKN250,0.01,VWS V14.00,2013-10-27 21:47:00,
2013-10-27 17:52:00,47.2,32.3,29.94,NW,305,0.0,13.0,56,0.00,,BKN250,0.01,VWS V14.00,2013-10-27 21:52:00,
2013-10-27 17:57:00,47.0,32.1,29.94,WSW,239,0.0,13.0,56,0.00,,BKN250,0.01,VWS V14.00,2013-10-27 21:57:00,
2013-10-27 18:02:00,46.9,31.6,29.95,North,0,0.0,3.0,55,0.00,,CLR,0.01,VWS V14.00,2013-10-27 22:02:00,
2013-10-27 18:07:00,46.8,32.0,29.94,North,351,0.0,3.0,56,0.00,,CLR,0.01,VWS V14.00,2013-10-27 22:07:00,
2013-10-27 18:12:00,46.6,32.2,29.95,NNW,331,0.0,3.0,57,0.00,,CLR,0.01,VWS V14.00,2013-10-27 22:12:00,
2013-10-27 18:17:00,46.3,31.9,29.95,NW,315,0.0,3.0,57,0.00,,CLR,0.01,VWS V14.00,2013-10-27 22:17:00,
2013-10-27 18:22:00,46.2,31.8,29.96,NNW,331,0.0,6.0,57,0.00,,CLR,0.01,VWS V14.00,2013-10-27 22:22:00,
2013-10-27 18:27:00,46.1,32.2,29.96,NNW,330,0.0,6.0,58,0.00,,CLR,0.01,VWS V14.00,2013-10-27 22:27:00,
2013-10-27 18:32:00,46.0,31.6,29.96,North,351,0.0,5.0,57,0.00,,CLR,0.01,VWS V14.00,2013-10-27 22:32:00,
2013-10-27 18:37:00,45.9,32.0,29.97,North,350,0.0,5.0,58,0.00,,CLR,0.01,VWS V14.00,2013-10-27 22:37:00,
2013-10-27 18:42:00,45.8,31.5,29.97,NW,320,0.0,5.0,57,0.00,,CLR,0.01,VWS V14.00,2013-10-27 22:42:00,
2013-10-27 18:47:00,45.6,31.7,29.97,NNW,330,0.0,5.0,58,0.00,,CLR,0.01,VWS V14.00,2013-10-27 22:47:00,
2013-10-27 18:52:00,45.5,31.6,29.97,NW,316,0.0,5.0,58,0.00,,CLR,0.01,VWS V14.00,2013-10-27 22:52:00,
2013-10-27 18:57:00,45.2,31.7,29.98,NW,321,0.0,5.0,59,0.00,,CLR,0.01,VWS V14.00,2013-10-27 22:57:00,
2013-10-27 19:02:00,45.1,31.6,29.98,NNW,330,0.0,0.0,59,0.00,,FEW070,0.01,VWS V14.00,2013-10-27 23:02:00,
2013-10-27 19:07:00,44.8,31.8,29.98,West,265,0.0,0.0,60,0.00,,FEW070,0.01,VWS V14.00,2013-10-27 23:07:00,
2013-10-27 19:12:00,44.8,31.8,29.98,WSW,237,0.0,0.0,60,0.00,,FEW070,0.01,VWS V14.00,2013-10-27 23:12:00,
2013-10-27 19:17:00,44.5,31.5,29.99,West,266,0.0,0.0,60,0.00,,FEW070,0.01,VWS V14.00,2013-10-27 23:17:00,
2013-10-27 19:22:00,44.4,31.8,29.99,West,275,0.0,0.0,61,0.00,,FEW070,0.01,VWS V14.00,2013-10-27 23:22:00,
2013-10-27 19:27:00,44.4,31.8,29.99,West,277,0.0,0.0,61,0.00,,FEW070,0.01,VWS V14.00,2013-10-27 23:27:00,
2013-10-27 19:32:00,44.4,31.8,29.99,NNW,328,0.0,0.0,61,0.00,,FEW070,0.01,VWS V14.00,2013-10-27 23:32:00,
2013-10-27 19:37:00,44.4,31.8,29.99,WNW,295,0.0,2.0,61,0.00,,FEW070,0.01,VWS V14.00,2013-10-27 23:37:00,
2013-10-27 19:42:00,44.4,31.8,30.00,WNW,282,0.0,6.0,61,0.00,,FEW070,0.01,VWS V14.00,2013-10-27 23:42:00,
2013-10-27 19:47:00,44.3,32.1,30.00,WNW,288,0.0,6.0,62,0.00,,FEW070,0.01,VWS V14.00,2013-10-27 23:47:00,
2013-10-27 19:51:00,44.1,31.9,30.00,NW,325,4.0,6.0,62,0.00,,FEW070,0.01,VWS V14.00,2013-10-27 23:51:00,
2013-10-27 19:56:00,44.1,31.9,30.00,WNW,290,5.0,6.0,62,0.00,,FEW070,0.01,VWS V14.00,2013-10-27 23:56:00,
2013-10-27 20:01:00,44.0,31.8,30.00,NNW,346,0.0,4.0,62,0.00,,CLR,0.01,VWS V14.00,2013-10-28 00:01:00,
2013-10-27 20:06:00,43.8,32.0,30.00,North,354,0.0,7.0,63,0.00,,CLR,0.01,VWS V14.00,2013-10-28 00:06:00,
2013-10-27 20:11:00,43.8,31.6,30.00,NW,317,0.0,8.0,62,0.00,,CLR,0.01,VWS V14.00,2013-10-28 00:11:00,
2013-10-27 20:16:00,44.0,31.8,30.01,NNE,22,3.0,10.0,62,0.00,,CLR,0.01,VWS V14.00,2013-10-28 00:16:00,
2013-10-27 20:21:00,44.0,32.2,30.00,NNW,339,0.0,10.0,63,0.00,,CLR,0.01,VWS V14.00,2013-10-28 00:21:00,
2013-10-27 20:26:00,43.8,31.6,30.00,NNW,335,6.0,10.0,62,0.00,,CLR,0.01,VWS V14.00,2013-10-28 00:26:00,
2013-10-27 20:31:00,43.8,32.0,30.01,WNW,291,0.0,0.0,63,0.00,,CLR,0.01,VWS V14.00,2013-10-28 00:31:00,
2013-10-27 20:36:00,43.7,32.3,30.01,NW,326,4.0,6.0,64,0.00,,CLR,0.01,VWS V14.00,2013-10-28 00:36:00,
2013-10-27 20:41:00,43.5,31.8,30.01,NNW,327,0.0,6.0,63,0.00,,CLR,0.01,VWS V14.00,2013-10-28 00:41:00,
2013-10-27 20:46:00,43.4,32.0,30.01,NNW,327,0.0,6.0,64,0.00,,CLR,0.01,VWS V14.00,2013-10-28 00:46:00,
2013-10-27 20:51:00,43.2,31.5,30.01,NW,324,0.0,6.0,63,0.00,,CLR,0.01,VWS V14.00,2013-10-28 00:51:00,
2013-10-27 20:56:00,43.0,31.7,30.02,WNW,294,0.0,6.0,64,0.00,,CLR,0.01,VWS V14.00,2013-10-28 00:56:00,
2013-10-27 21:01:00,42.8,31.9,30.01,WNW,294,0.0,0.0,65,0.00,,CLR,0.01,VWS V14.00,2013-10-28 01:01:00,
2013-10-27 21:06:00,42.5,31.6,30.02,WNW,294,0.0,0.0,65,0.00,,CLR,0.01,VWS V14.00,2013-10-28 01:06:00,
2013-10-27 21:12:00,42.2,31.7,30.02,NNW,331,0.0,3.0,66,0.00,,CLR,0.01,VWS V14.00,2013-10-28 01:12:00,
2013-10-27 21:17:00,42.1,31.6,30.02,NNW,331,0.0,3.0,66,0.00,,CLR,0.01,VWS V14.00,2013-10-28 01:17:00,
2013-10-27 21:22:00,42.0,31.5,30.02,NNW,331,0.0,3.0,66,0.00,,CLR,0.01,VWS V14.00,2013-10-28 01:22:00,
2013-10-27 21:27:00,42.0,31.5,30.02,NNW,331,0.0,3.0,66,0.00,,CLR,0.01,VWS V14.00,2013-10-28 01:27:00,
2013-10-27 21:32:00,42.0,31.5,30.02,NNW,331,0.0,0.0,66,0.00,,CLR,0.01,VWS V14.00,2013-10-28 01:32:00,
2013-10-27 21:37:00,41.7,31.2,30.02,NNW,331,0.0,0.0,66,0.00,,CLR,0.01,VWS V14.00,2013-10-28 01:37:00,
2013-10-27 21:42:00,41.5,31.4,30.03,NNW,331,0.0,0.0,67,0.00,,CLR,0.01,VWS V14.00,2013-10-28 01:42:00,
2013-10-27 21:47:00,41.1,31.4,30.03,NNW,331,0.0,0.0,68,0.00,,CLR,0.01,VWS V14.00,2013-10-28 01:47:00,
2013-10-27 21:52:00,40.7,31.0,30.03,NNW,331,0.0,0.0,68,0.00,,CLR,0.01,VWS V14.00,2013-10-28 01:52:00,
2013-10-27 21:56:00,40.4,31.0,30.04,NNW,331,0.0,0.0,69,0.00,,CLR,0.01,VWS V14.00,2013-10-28 01:56:00,
2013-10-27 22:01:00,40.1,30.8,30.04,NNW,331,0.0,0.0,69,0.00,,CLR,0.01,VWS V14.00,2013-10-28 02:01:00,
2013-10-27 22:07:00,39.8,30.8,30.05,NNW,331,0.0,0.0,70,0.00,,CLR,0.01,VWS V14.00,2013-10-28 02:07:00,
2013-10-27 22:12:00,39.5,30.5,30.05,NNW,331,0.0,0.0,70,0.00,,CLR,0.01,VWS V14.00,2013-10-28 02:12:00,
2013-10-27 22:17:00,39.4,30.8,30.06,NNW,331,0.0,0.0,71,0.00,,CLR,0.01,VWS V14.00,2013-10-28 02:17:00,
2013-10-27 22:22:00,39.4,30.8,30.05,NNW,331,0.0,0.0,71,0.00,,CLR,0.01,VWS V14.00,2013-10-28 02:22:00,
2013-10-27 22:26:00,39.3,31.0,30.05,NNW,331,0.0,0.0,72,0.00,,CLR,0.01,VWS V14.00,2013-10-28 02:26:00,
2013-10-27 22:31:00,39.4,31.1,30.06,NNW,331,0.0,0.0,72,0.00,,CLR,0.01,VWS V14.00,2013-10-28 02:31:00,
2013-10-27 22:36:00,39.5,31.2,30.06,NNW,331,0.0,0.0,72,0.00,,CLR,0.01,VWS V14.00,2013-10-28 02:36:00,
2013-10-27 22:41:00,39.4,30.8,30.06,NNW,331,0.0,0.0,71,0.00,,CLR,0.01,VWS V14.00,2013-10-28 02:41:00,
2013-10-27 22:46:00,39.4,31.1,30.06,NNW,331,0.0,0.0,72,0.00,,CLR,0.01,VWS V14.00,2013-10-28 02:46:00,
2013-10-27 22:51:00,39.4,31.1,30.06,NNW,331,0.0,0.0,72,0.00,,CLR,0.01,VWS V14.00,2013-10-28 02:51:00,
2013-10-27 22:57:00,39.5,31.2,30.06,NNW,331,0.0,0.0,72,0.00,,CLR,0.01,VWS V14.00,2013-10-28 02:57:00,
2013-10-27 23:02:00,39.4,31.1,30.06,NNW,331,0.0,0.0,72,0.00,,CLR,0.01,VWS V14.00,2013-10-28 03:02:00,
2013-10-27 23:07:00,39.3,30.7,30.07,NNW,331,0.0,0.0,71,0.00,,CLR,0.01,VWS V14.00,2013-10-28 03:07:00,
2013-10-27 23:12:00,38.9,30.7,30.06,NNW,331,0.0,0.0,72,0.00,,CLR,0.01,VWS V14.00,2013-10-28 03:12:00,
2013-10-27 23:17:00,38.7,30.8,30.06,NNW,331,0.0,0.0,73,0.00,,CLR,0.01,VWS V14.00,2013-10-28 03:17:00,
2013-10-27 23:22:00,38.4,30.5,30.07,NNW,331,0.0,0.0,73,0.00,,CLR,0.01,VWS V14.00,2013-10-28 03:22:00,
2013-10-27 23:27:00,38.3,30.4,30.07,NNW,331,0.0,0.0,73,0.00,,CLR,0.01,VWS V14.00,2013-10-28 03:27:00,
2013-10-27 23:32:00,38.0,30.1,30.06,NNW,331,0.0,0.0,73,0.00,,CLR,0.01,VWS V14.00,2013-10-28 03:32:00,
2013-10-27 23:37:00,37.8,30.3,30.07,NNW,331,0.0,0.0,74,0.00,,CLR,0.01,VWS V14.00,2013-10-28 03:37:00,
2013-10-27 23:42:00,37.7,30.5,30.07,NNW,331,0.0,0.0,75,0.00,,CLR,0.01,VWS V14.00,2013-10-28 03:42:00,
2013-10-27 23:47:00,37.7,30.5,30.07,NNW,331,0.0,0.0,75,0.00,,CLR,0.01,VWS V14.00,2013-10-28 03:47:00,
2013-10-27 23:52:00,37.7,30.5,30.07,NNW,331,0.0,0.0,75,0.00,,CLR,0.01,VWS V14.00,2013-10-28 03:52:00,
2013-10-27 23:57:00,37.8,30.6,30.07,NNW,332,0.0,0.0,75,0.00,,CLR,0.01,VWS V14.00,2013-10-28 03:57:00,